Terminal Aerodrome Forecast
Issued by NWS

Home | Current Version | Previous Version | Text Only | Print | Product List | Glossary On
Versions: 1 2 3 4 5 6 7 8 9 10 11 12 13 14 15 16 17 18 19
000
FTUS43 KDVN 141000 AAB
TAFCID
TAF AMD
KCID 141059Z 1411/1506 34020G30KT P6SM -SN OVC015
     FM141500 34022G30KT P6SM OVC025
     FM141800 34022G30KT P6SM BKN050
     FM150100 36005KT P6SM SCT250=

USA.gov is the U.S. government's official web portal to all federal, state and local government web resources and services.